AAL1814 KDFW-KEYW

Flight info

Callsign AAL1814
Flight time N/A
Altitude 39000
Route MRSSH3 ZALEA HRV Q105 BLVNS Y290 GAWKS PIKKR KRAKN1
Aircraft A319/M-SDE3FGHIRWY/LB1

Departure

Time 2026-04-30 13:14
Airport Dallas Fort Worth International Airport (KDFW)

Arrival

Time N/A
Airport Key West International Airport (KEYW)
Time Latitude Longitude Altitude Speed Heading
2026-04-30 12:44 32.89712 -97.03489 619 ft 0 kts 282°
2026-04-30 13:05 32.89708 -97.03469 631 ft 4 kts 281°
2026-04-30 13:06 32.89700 -97.03413 628 ft 4 kts 246°
2026-04-30 13:06 32.89716 -97.03400 617 ft 4 kts 181°
2026-04-30 13:06 32.89731 -97.03400 626 ft 0 kts 180°
2026-04-30 13:06 32.89710 -97.03400 619 ft 1 kts 180°
2026-04-30 13:08 32.89707 -97.03400 620 ft 2 kts 180°
2026-04-30 13:09 32.89694 -97.03399 626 ft 4 kts 172°
2026-04-30 13:09 32.89660 -97.03367 618 ft 9 kts 135°
2026-04-30 13:09 32.89581 -97.03317 624 ft 17 kts 178°
2026-04-30 13:09 32.89458 -97.03317 618 ft 18 kts 180°
2026-04-30 13:10 32.89334 -97.03317 619 ft 18 kts 180°
2026-04-30 13:10 32.89208 -97.03318 621 ft 18 kts 180°
2026-04-30 13:10 32.89075 -97.03319 618 ft 21 kts 180°
2026-04-30 13:10 32.88920 -97.03318 622 ft 23 kts 179°
2026-04-30 13:11 32.88758 -97.03321 620 ft 23 kts 180°
2026-04-30 13:11 32.88595 -97.03321 622 ft 24 kts 180°
2026-04-30 13:11 32.88462 -97.03295 626 ft 18 kts 160°
2026-04-30 13:11 32.88341 -97.03286 620 ft 18 kts 180°
2026-04-30 13:12 32.88216 -97.03286 620 ft 18 kts 180°
2026-04-30 13:12 32.88089 -97.03287 617 ft 18 kts 180°
2026-04-30 13:12 32.87974 -97.03252 618 ft 18 kts 118°
2026-04-30 13:13 32.87982 -97.03011 618 ft 9 kts 44°
2026-04-30 13:13 32.88049 -97.03007 620 ft 12 kts 360°
2026-04-30 13:13 32.89113 -97.03003 626 ft 142 kts
2026-04-30 13:14 32.90220 -97.03008 919 ft 162 kts 359°
2026-04-30 13:14 32.91346 -97.03051 1658 ft 162 kts
2026-04-30 13:14 32.93749 -97.02475 2829 ft 199 kts 22°
2026-04-30 13:15 32.95167 -97.01997 3446 ft 225 kts 21°
2026-04-30 13:15 32.98475 -97.00896 5158 ft 262 kts 19°
2026-04-30 13:15 33.00153 -97.00016 6189 ft 267 kts 39°
2026-04-30 13:16 33.01342 -96.98320 7125 ft 273 kts 65°
2026-04-30 13:16 33.01744 -96.96082 7890 ft 285 kts 92°
2026-04-30 13:16 33.01544 -96.93696 8621 ft 295 kts 97°
2026-04-30 13:17 33.01076 -96.88684 10129 ft 315 kts 99°
2026-04-30 13:17 33.00507 -96.86067 10450 ft 337 kts 113°
2026-04-30 13:17 32.97887 -96.81054 11060 ft 375 kts 128°
2026-04-30 13:18 32.96385 -96.78524 11660 ft 383 kts 127°
2026-04-30 13:18 32.93276 -96.73242 13078 ft 396 kts 127°
2026-04-30 13:18 32.91660 -96.70490 13882 ft 402 kts 128°
2026-04-30 13:19 32.90070 -96.67786 14514 ft 407 kts 128°
2026-04-30 13:19 32.88435 -96.65006 15112 ft 412 kts 128°
2026-04-30 13:19 32.86783 -96.62200 15719 ft 417 kts 128°
2026-04-30 13:19 32.85103 -96.59355 16323 ft 422 kts 128°
2026-04-30 13:20 32.83410 -96.56492 16919 ft 426 kts 128°
2026-04-30 13:20 32.81689 -96.53588 17513 ft 431 kts 128°
2026-04-30 13:20 32.79951 -96.50662 18081 ft 436 kts 128°
2026-04-30 13:20 32.78191 -96.47696 18623 ft 440 kts 128°
2026-04-30 13:21 32.76419 -96.44708 19137 ft 445 kts 129°
2026-04-30 13:21 32.74627 -96.41690 19682 ft 449 kts 129°
2026-04-30 13:21 32.72826 -96.38646 20220 ft 453 kts 128°
2026-04-30 13:22 32.70080 -96.31799 21270 ft 467 kts 109°
2026-04-30 13:22 32.69372 -96.28014 21756 ft 474 kts 100°
2026-04-30 13:22 32.68824 -96.20126 22678 ft 484 kts 96°
2026-04-30 13:23 32.68561 -96.16131 23115 ft 488 kts 97°
2026-04-30 13:23 32.68005 -96.08036 23905 ft 496 kts 97°
2026-04-30 13:24 32.67439 -95.99856 24554 ft 504 kts 96°
2026-04-30 13:24 32.66870 -95.91451 25222 ft 511 kts 96°
2026-04-30 13:25 32.66294 -95.82974 25886 ft 518 kts 96°
2026-04-30 13:25 32.65704 -95.74445 26538 ft 525 kts 96°
2026-04-30 13:26 32.64772 -95.61374 27473 ft 535 kts 95°
2026-04-30 13:26 32.64132 -95.52522 28078 ft 542 kts 95°
2026-04-30 13:27 32.63491 -95.43568 28659 ft 548 kts 95°
2026-04-30 13:28 32.62506 -95.29947 29496 ft 556 kts 94°
2026-04-30 13:28 32.61840 -95.20825 30294 ft 555 kts 94°
2026-04-30 13:28 32.61500 -95.16261 30625 ft 556 kts 94°
2026-04-30 13:29 32.60811 -95.07114 31281 ft 557 kts 94°
2026-04-30 13:29 32.60117 -94.97953 31944 ft 558 kts 94°
2026-04-30 13:30 32.59062 -94.84182 32931 ft 560 kts 94°
2026-04-30 13:31 32.57842 -94.75078 33556 ft 560 kts 108°
2026-04-30 13:31 32.54144 -94.61937 34496 ft 561 kts 110°
2026-04-30 13:32 32.51686 -94.53188 35193 ft 557 kts 110°
2026-04-30 13:32 32.49239 -94.44517 35863 ft 554 kts 110°
2026-04-30 13:33 32.46783 -94.35871 36456 ft 553 kts 110°
2026-04-30 13:33 32.44321 -94.27247 37018 ft 552 kts 111°
2026-04-30 13:34 32.43090 -94.22956 37283 ft 551 kts 111°
2026-04-30 13:34 32.39407 -94.10126 38025 ft 551 kts 111°
2026-04-30 13:35 32.38171 -94.05819 38278 ft 551 kts 111°
2026-04-30 13:35 32.35700 -93.97250 38751 ft 550 kts 111°
2026-04-30 13:36 32.33217 -93.88677 38997 ft 551 kts 111°
2026-04-30 13:36 32.29492 -93.75803 39013 ft 552 kts 111°
2026-04-30 13:37 32.25753 -93.62984 39015 ft 548 kts 111°
2026-04-30 13:38 32.21937 -93.50322 39007 ft 546 kts 117°
2026-04-30 13:38 32.18068 -93.42730 39014 ft 536 kts 134°
2026-04-30 13:39 32.13514 -93.35763 39012 ft 536 kts 133°
2026-04-30 13:40 32.06688 -93.25293 39017 ft 537 kts 133°
2026-04-30 13:40 32.02124 -93.18314 38978 ft 537 kts 133°
2026-04-30 13:41 31.97566 -93.11363 39023 ft 536 kts 133°
2026-04-30 13:41 31.93007 -93.04422 39046 ft 535 kts 133°
2026-04-30 13:42 31.88445 -92.97495 39033 ft 535 kts 133°
2026-04-30 13:42 31.81602 -92.87113 39026 ft 535 kts 133°
2026-04-30 13:43 31.77033 -92.80198 39014 ft 535 kts 133°
2026-04-30 13:43 31.72496 -92.73352 38999 ft 534 kts 133°
2026-04-30 13:44 31.67922 -92.66451 39009 ft 534 kts 133°
2026-04-30 13:44 31.63346 -92.59581 39009 ft 534 kts 133°
2026-04-30 13:45 31.56479 -92.49274 39000 ft 535 kts 133°
2026-04-30 13:46 31.51896 -92.42406 39001 ft 535 kts 133°
2026-04-30 13:46 31.47313 -92.35552 38994 ft 534 kts 133°
2026-04-30 13:47 31.42736 -92.28712 39005 ft 533 kts 133°
2026-04-30 13:47 31.38156 -92.21888 39004 ft 533 kts 133°
2026-04-30 13:48 31.33575 -92.15078 39002 ft 532 kts 133°
2026-04-30 13:48 31.28996 -92.08275 39012 ft 532 kts 133°
2026-04-30 13:49 31.24416 -92.01484 39014 ft 532 kts 133°
2026-04-30 13:49 31.19833 -91.94703 39009 ft 531 kts 133°
2026-04-30 13:50 31.15252 -91.87944 39022 ft 531 kts 133°
2026-04-30 13:50 31.08396 -91.77839 38978 ft 532 kts 133°
2026-04-30 13:51 31.03793 -91.71066 38977 ft 532 kts 133°
2026-04-30 13:51 30.99188 -91.64302 38979 ft 533 kts 133°
2026-04-30 13:52 30.94575 -91.57548 38965 ft 533 kts 133°
2026-04-30 13:52 30.89952 -91.50798 38992 ft 533 kts 132°
2026-04-30 13:53 30.85332 -91.44046 38996 ft 533 kts 132°
2026-04-30 13:53 30.81486 -91.38428 38997 ft 533 kts 132°
2026-04-30 13:54 30.76101 -91.30585 38997 ft 533 kts 132°
2026-04-30 13:54 30.71473 -91.23857 38993 ft 533 kts 132°
2026-04-30 13:55 30.67583 -91.18222 38997 ft 533 kts 132°
2026-04-30 13:55 30.62973 -91.11557 38992 ft 533 kts 132°
2026-04-30 13:56 30.58327 -91.04834 38988 ft 534 kts 132°
2026-04-30 13:56 30.53672 -90.98108 38989 ft 535 kts 132°
2026-04-30 13:57 30.48998 -90.91372 38980 ft 535 kts 132°
2026-04-30 13:57 30.44330 -90.84650 38982 ft 535 kts 132°
2026-04-30 13:58 30.37315 -90.74582 38973 ft 535 kts 132°
2026-04-30 13:59 30.32635 -90.67872 38980 ft 536 kts 132°
2026-04-30 13:59 30.27946 -90.61162 38978 ft 536 kts 132°
2026-04-30 14:00 30.23243 -90.54456 38982 ft 536 kts 132°
2026-04-30 14:00 30.16188 -90.44412 38974 ft 537 kts 132°
2026-04-30 14:01 30.11482 -90.37723 38994 ft 537 kts 132°
2026-04-30 14:01 30.06764 -90.31025 38983 ft 537 kts 132°
2026-04-30 14:02 30.02076 -90.24371 38992 ft 537 kts 132°
2026-04-30 14:02 29.97358 -90.17695 38993 ft 536 kts 132°
2026-04-30 14:03 29.92641 -90.11047 38977 ft 535 kts 132°
2026-04-30 14:03 29.87926 -90.04404 38981 ft 535 kts 132°
2026-04-30 14:04 29.83214 -89.97777 38952 ft 535 kts 132°
2026-04-30 14:04 29.78426 -89.91201 38939 ft 536 kts 133°
2026-04-30 14:05 29.73586 -89.84667 38946 ft 536 kts 133°
2026-04-30 14:05 29.68760 -89.78145 38950 ft 535 kts 133°
2026-04-30 14:06 29.61544 -89.68335 38963 ft 536 kts 133°
2026-04-30 14:07 29.54318 -89.58545 38965 ft 536 kts 133°
2026-04-30 14:08 29.47094 -89.48774 38976 ft 534 kts 133°
2026-04-30 14:08 29.39906 -89.39084 38979 ft 533 kts 133°
2026-04-30 14:09 29.35094 -89.32625 38983 ft 533 kts 133°
2026-04-30 14:10 29.27878 -89.22935 38993 ft 533 kts 133°
2026-04-30 14:10 29.23062 -89.16479 38970 ft 533 kts 132°
2026-04-30 14:11 29.18249 -89.10039 38991 ft 532 kts 132°
2026-04-30 14:11 29.13432 -89.03601 38996 ft 532 kts 132°
2026-04-30 14:12 29.08616 -88.97180 38997 ft 532 kts 132°
2026-04-30 14:12 29.03796 -88.90764 38999 ft 531 kts 132°
2026-04-30 14:13 28.98983 -88.84362 38997 ft 531 kts 132°
2026-04-30 14:13 28.94164 -88.77954 38969 ft 532 kts 132°
2026-04-30 14:14 28.89346 -88.71563 38990 ft 531 kts 132°
2026-04-30 14:14 28.84543 -88.65171 38998 ft 530 kts 131°
2026-04-30 14:15 28.79769 -88.58755 39001 ft 530 kts 131°
2026-04-30 14:15 28.75034 -88.52391 39004 ft 530 kts 131°
2026-04-30 14:16 28.70253 -88.45989 39011 ft 530 kts 131°
2026-04-30 14:16 28.65468 -88.39603 39003 ft 530 kts 131°
2026-04-30 14:17 28.60675 -88.33220 38995 ft 530 kts 131°
2026-04-30 14:17 28.55880 -88.26844 39007 ft 530 kts 131°
2026-04-30 14:18 28.51085 -88.20472 39009 ft 530 kts 131°
2026-04-30 14:18 28.43896 -88.10918 39009 ft 530 kts 131°
2026-04-30 14:19 28.39345 -88.04350 39008 ft 529 kts 120°
2026-04-30 14:19 28.37614 -88.00678 39005 ft 527 kts 111°
2026-04-30 14:20 28.35197 -87.92862 38986 ft 524 kts 104°
2026-04-30 14:20 28.31800 -87.81085 39005 ft 523 kts 105°
2026-04-30 14:21 28.29525 -87.73238 39008 ft 523 kts 105°
2026-04-30 14:22 28.26101 -87.61498 39009 ft 522 kts 105°
2026-04-30 14:22 28.22676 -87.49770 39010 ft 522 kts 105°
2026-04-30 14:23 28.18108 -87.34150 39016 ft 522 kts 105°
2026-04-30 14:24 28.14687 -87.22501 39018 ft 521 kts 105°
2026-04-30 14:25 28.10092 -87.06938 39019 ft 520 kts 105°
2026-04-30 14:26 28.06638 -86.95284 39010 ft 520 kts 105°
2026-04-30 14:27 28.03175 -86.83652 39014 ft 519 kts 105°
2026-04-30 14:27 28.00858 -86.75908 39013 ft 518 kts 105°
2026-04-30 14:28 27.97500 -86.64371 39018 ft 516 kts 104°
2026-04-30 14:28 27.95293 -86.56652 39017 ft 516 kts 104°
2026-04-30 14:29 27.91197 -86.42521 39016 ft 514 kts 105°
2026-04-30 14:31 27.85231 -86.22136 39013 ft 512 kts 105°
2026-04-30 14:31 27.81866 -86.10673 39016 ft 511 kts 105°
2026-04-30 14:32 27.78502 -85.99262 39014 ft 510 kts 105°
2026-04-30 14:33 27.76274 -85.91710 39016 ft 509 kts 105°
2026-04-30 14:33 27.72900 -85.80348 39015 ft 509 kts 105°
2026-04-30 14:34 27.70641 -85.72763 39013 ft 509 kts 105°
2026-04-30 14:34 27.68390 -85.65190 39013 ft 509 kts 105°
2026-04-30 14:35 27.65010 -85.53831 39010 ft 509 kts 105°
2026-04-30 14:36 27.62747 -85.46272 39007 ft 509 kts 105°
2026-04-30 14:36 27.60471 -85.38721 39019 ft 509 kts 106°
2026-04-30 14:37 27.58596 -85.31069 39018 ft 503 kts 97°
2026-04-30 14:37 27.57274 -85.23380 39018 ft 502 kts 97°
2026-04-30 14:38 27.55926 -85.15663 39016 ft 502 kts 97°
2026-04-30 14:38 27.54577 -85.07954 39020 ft 501 kts 97°
2026-04-30 14:39 27.53233 -85.00243 39024 ft 501 kts 98°
2026-04-30 14:39 27.51869 -84.92541 39021 ft 501 kts 98°
2026-04-30 14:40 27.49814 -84.80994 39022 ft 501 kts 98°
2026-04-30 14:40 27.48454 -84.73301 39021 ft 501 kts 98°
2026-04-30 14:41 27.47102 -84.65658 39021 ft 501 kts 98°
2026-04-30 14:41 27.45730 -84.57978 39025 ft 500 kts 98°
2026-04-30 14:42 27.44576 -84.51558 39023 ft 499 kts 98°
2026-04-30 14:42 27.43206 -84.43950 39023 ft 499 kts 98°
2026-04-30 14:43 27.41826 -84.36295 39025 ft 499 kts 98°
2026-04-30 14:43 27.40447 -84.28652 39030 ft 499 kts 98°
2026-04-30 14:44 27.39065 -84.21010 39026 ft 498 kts 98°
2026-04-30 14:44 27.37674 -84.13388 39026 ft 497 kts 98°
2026-04-30 14:45 27.36285 -84.05775 39026 ft 496 kts 98°
2026-04-30 14:45 27.34883 -83.98176 39025 ft 496 kts 98°
2026-04-30 14:46 27.33478 -83.90579 39029 ft 495 kts 98°
2026-04-30 14:46 27.32084 -83.82991 39029 ft 495 kts 98°
2026-04-30 14:47 27.30683 -83.75410 39028 ft 495 kts 98°
2026-04-30 14:47 27.29279 -83.67842 39027 ft 494 kts 98°
2026-04-30 14:48 27.27874 -83.60280 39029 ft 494 kts 98°
2026-04-30 14:48 27.26459 -83.52724 39030 ft 494 kts 98°
2026-04-30 14:49 27.25042 -83.45209 39027 ft 494 kts 98°
2026-04-30 14:49 27.23619 -83.37660 39025 ft 494 kts 98°
2026-04-30 14:50 27.21490 -83.26326 39027 ft 494 kts 98°
2026-04-30 14:51 27.19342 -83.14999 39030 ft 494 kts 98°
2026-04-30 14:51 27.17208 -83.07637 39032 ft 500 kts 114°
2026-04-30 14:52 27.15435 -83.04266 39035 ft 502 kts 123°
2026-04-30 14:52 27.09521 -82.94548 39028 ft 502 kts 122°
2026-04-30 14:53 27.03627 -82.84817 39033 ft 502 kts 122°
2026-04-30 14:54 26.95761 -82.71924 39027 ft 503 kts 124°
2026-04-30 14:55 26.90891 -82.66303 39030 ft 505 kts 142°
2026-04-30 14:55 26.88114 -82.63895 39031 ft 505 kts 142°
2026-04-30 14:56 26.77033 -82.54227 39026 ft 505 kts 142°
2026-04-30 14:57 26.68719 -82.46989 39028 ft 505 kts 142°
2026-04-30 14:58 26.57635 -82.37359 39034 ft 504 kts 141°
2026-04-30 14:58 26.49337 -82.30181 39037 ft 502 kts 141°
2026-04-30 15:00 26.35553 -82.18264 39035 ft 501 kts 141°
2026-04-30 15:01 26.24551 -82.08779 38890 ft 498 kts 140°
2026-04-30 15:01 26.21812 -82.06428 38656 ft 497 kts 140°
2026-04-30 15:01 26.16344 -82.01734 38112 ft 496 kts 140°
2026-04-30 15:02 26.13614 -81.99387 37845 ft 496 kts 140°
2026-04-30 15:02 26.10885 -81.97041 37581 ft 496 kts 140°
2026-04-30 15:03 26.02679 -81.90003 35488 ft 505 kts 141°
2026-04-30 15:03 25.97115 -81.85237 34027 ft 504 kts 141°
2026-04-30 15:04 25.91539 -81.80475 32216 ft 505 kts 142°
2026-04-30 15:04 25.82813 -81.74051 28879 ft 500 kts 148°
2026-04-30 15:05 25.73920 -81.67954 24769 ft 498 kts 149°
2026-04-30 15:06 25.68115 -81.63972 22865 ft 479 kts 148°
2026-04-30 15:06 25.62603 -81.60187 21419 ft 455 kts 148°
2026-04-30 15:07 25.57271 -81.56529 20064 ft 448 kts 149°
2026-04-30 15:07 25.51648 -81.53800 18808 ft 439 kts 169°
2026-04-30 15:08 25.45648 -81.53617 17559 ft 427 kts 193°
2026-04-30 15:08 25.37505 -81.56886 15940 ft 409 kts 206°
2026-04-30 15:09 25.32334 -81.59276 14842 ft 397 kts 206°
2026-04-30 15:09 25.27329 -81.61578 13658 ft 382 kts 206°
2026-04-30 15:10 25.22549 -81.63783 12442 ft 370 kts 206°
2026-04-30 15:11 25.13240 -81.68082 10742 ft 341 kts 205°
2026-04-30 15:11 25.09031 -81.70017 10500 ft 314 kts 205°
2026-04-30 15:12 25.03179 -81.72712 9936 ft 296 kts 205°
2026-04-30 15:13 24.99347 -81.74481 9721 ft 302 kts 205°
2026-04-30 15:14 24.91790 -81.77958 8282 ft 289 kts 204°
2026-04-30 15:14 24.86418 -81.80859 7124 ft 283 kts 214°
2026-04-30 15:16 24.78293 -81.86612 5169 ft 273 kts 213°
2026-04-30 15:17 24.71995 -81.91063 3534 ft 264 kts 213°
2026-04-30 15:18 24.64975 -81.96027 2987 ft 207 kts 212°
2026-04-30 15:19 24.60919 -81.96851 2277 ft 200 kts 179°